Location: Miles
(41.4492°N, 81.6087°W)
Time: 20:40:39
(UTC+00:00)

Vanguard 2 Rocket - Pass Details

Date: 25 September 2024
Orbit: 553 x 3298 km, 32.9° (Epoch: 11 October)

Event Time Altitude Azimuth Distance (km) Brightness Sun altitude
Rises 07:14:55 0° 264° (W) 3,919 - -41.8°
Reaches altitude 10° 07:17:14 10° 259° (WSW) 3,225 - -41.5°
Maximum altitude 07:25:16 49° 186° (S) 2,207 - -40.5°
Exits shadow 07:29:05 39° 145° (SE) 2,813 9.1 -40.0°
Drops below altitude 10° 07:39:06 10° 118° (ESE) 5,407 11.0 -38.6°
Sets 07:44:18 0° 115° (ESE) 6,769 11.6 -37.9°
